Regional Weather Roundup
Issued by NWS

Home | Current Version | Previous Version | Text Only | Print | Product List | Glossary On
Versions: 1 2 3 4 5 6 7 8 9 10 11 12 13 14 15 16 17 18 19 20 21 22 23 24 25 26 27 28 29 30 31 32 33 34 35 36 37 38 39 40 41 42 43 44 45 46 47 48 49 50
000
ASUS43 KDTX 032201
RWRMI
MICHIGAN HOURLY REGIONAL WEATHER ROUNDUP
NATIONAL WEATHER SERVICE DETROIT/PONTIAC MI
500 PM EST SAT DEC 03 2016

NOTE: "FAIR" INDICATES FEW OR NO CLOUDS BELOW 12,000 FEET WITH NO
SIGNIFICANT WEATHER AND/OR OBSTRUCTION TO VISIBILITY.

MIZ047>049-052>055-059>063-066>070-074>076-081>083-032300-
SOUTHEAST LOWER MICHIGAN

CITY           SKY/WX    TMP DP  RH WIND       PRES   REMARKS
ADRIAN         CLOUDY    36  28  73 CALM      30.32R
ALMA           CLOUDY    37  29  72 SW6       30.29S WCI  33
ANN ARBOR      CLOUDY    35  29  78 SW3       30.30R
BAD AXE        CLOUDY    37  33  84 W6        30.27S WCI  32
CARO           CLOUDY    37  32  82 SW6       30.27R WCI  32
DETROIT CITY   CLOUDY    38  28  67 W8        30.30S WCI  32
DETROIT        CLOUDY    37  29  72 W8        30.32R WCI  31
FLINT          CLOUDY    37  30  75 W6        30.30R WCI  32
GROSSE ILE     CLOUDY    37  29  72 W5        30.31R WCI  33
HILLSDALE      CLOUDY    34  27  75 W3        30.29S
HOWELL         CLOUDY    36  30  79 SW6       30.29R WCI  31

CITY           SKY/WX    TMP DP  RH WIND       PRES   REMARKS
JACKSON        CLOUDY    36  27  69 W6        30.30R WCI  31
LAMBERTVILLE   CLOUDY    38  30  72 W3        30.32S
LANSING        CLOUDY    36  27  69 W10       30.30S WCI  28
LAPEER         NOT AVBL
MASON          CLOUDY    35  30  82 W6        30.30R WCI  30
MONROE         CLOUDY    37  31  82 W3        30.32R
MT. CLEMENS    CLOUDY    39  30  68 W7        30.26S WCI  34
PONTIAC        CLOUDY    36  29  75 W7        30.27R WCI  30
PORT HOPE        N/A     39  34  82 VRB5      30.25S
PORT HURON     CLOUDY    37  30  75 W3        30.28S
TRI CITIES     CLOUDY    38  32  79 W9        30.29R WCI  31
MIDLAND        CLOUDY    39  29  66 W3        30.27S
TROY           CLOUDY    38  28  64 SW5       30.31R WCI  35
SAGINAW HB     CLOUDY    37  30  75 SW6       30.28S WCI  33
$$
MIZ043>046-050>051-056>058-064>065-071>073-077>080-032300-
SOUTHWEST LOWER MICHIGAN

CITY           SKY/WX    TMP DP  RH WIND       PRES   REMARKS
BATTLE CREEK   CLOUDY    36  28  73 W5        30.31R WCI  32
BENTON HARBOR  CLOUDY    36  26  67 SW7       30.32S WCI  30
BIG RAPIDS     CLOUDY    36  28  74 W8        30.28R WCI  30
COLDWATER      CLOUDY    36  26  65 W6        30.31S WCI  31
FREMONT        CLOUDY    34  24  67 CALM      30.29S
HOLLAND        CLOUDY    36  27  69 SW7       30.31R WCI  30
GRAND RAPIDS   CLOUDY    36  27  69 SW7       30.30S WCI  30
IONIA          CLOUDY    35  27  70 SW6       30.29S WCI  30
KALAMAZOO      CLOUDY    36  25  64 W5        30.31S WCI  32
LUDINGTON      CLOUDY    35  29  80 SW6       30.28F WCI  30
MARSHALL       CLOUDY    36  28  73 W5        30.30R WCI  32
MOUNT PLEASANT CLOUDY    37  29  72 W6        30.27S WCI  33
MUSKEGON       FLURRIES  36  27  69 W3        30.31R
SOUTH HAVEN    CLOUDY    37  28  70 W5        30.32S WCI  33
$$
MIZ016>042-032300-
NORTHERN LOWER MICHIGAN

CITY           SKY/WX    TMP DP  RH WIND       PRES   REMARKS
ALPENA         CLOUDY    39  28  64 CALM      30.26R
BEAVER ISLAND  CLOUDY    38  31  77 NW3       30.26S
BELLAIRE       CLOUDY    36  35  94 CALM      30.27S
CADILLAC       CLOUDY    34  31  89 W6        30.24S WCI  29
CHARLEVOIX     CLOUDY    37  34  90 NW5       30.29S WCI  33
FRANKFORT      LGT RAIN  35  33  92 W7        30.28S WCI  30
GAYLORD        CLOUDY    35  30  82 NE3       30.24R
GRAYLING       LGT SNOW  34  33  96 CALM      30.26R
HARBOR SPRINGS CLOUDY    38  31  76 CALM      30.26S
HOUGHTON LAKE  CLOUDY    36  30  79 W8        30.26R WCI  30
MANISTEE       CLOUDY    36  28  73 SW7       30.28S WCI  30
OSCODA         CLOUDY    38  33  80 SW5       30.26R WCI  35
PELLSTON       CLOUDY    37  31  78 SW3       30.26R
ROGERS CITY    CLOUDY    39  30  72 CALM      30.26S
TRAVERSE CITY  LGT RAIN  36  34  92 VRB6      30.27R WCI  31
$$
MIZ007>008-015-032300-
EASTERN UPPER MICHIGAN

CITY           SKY/WX    TMP DP  RH WIND       PRES   REMARKS
KINROSS        CLOUDY    33  32  96 W3        30.26R
MACKINAC ISLAN CLOUDY    37  29  74 NW5       30.25R WCI  33
NEWBERRY       CLOUDY    33  32  96 SW5       30.26R FOG     WCI  28
S. S. MARIE    PTCLDY    35  28  75 NW6       30.24R WCI  30
MUNISING         N/A     33  33 100 CALM      30.27R
$$
MIZ004>006-011>014-085-032300-
CENTRAL UPPER MICHIGAN

CITY           SKY/WX    TMP DP  RH WIND       PRES   REMARKS
MANISTIQUE     CLOUDY    36  32  86 NW6       30.27R WCI  31
ESCANABA       CLOUDY    37  28  70 NW3       30.26F
MENOMINEE      CLOUDY    34  26  72 CALM      30.28F
SAWYER-GWINN   CLOUDY    34  27  75 CALM      30.24R
$$
MIZ001>003-009>011-084-032300-
WESTERN UPPER MICHIGAN

CITY           SKY/WX    TMP DP  RH WIND       PRES   REMARKS
IRON MOUNTAIN  CLOUDY    32  26  78 CALM      30.23F
HOUGHTON       CLOUDY    33  29  85 S6        30.22F WCI  28
COPPER HARBOR    N/A     35  29  78 CALM      30.26R
IRONWOOD       CLOUDY    30  24  78 S3        30.22F
$$

ABBREVIATIONS USED IN REMARKS
   TC - TEMPERATURE IN CELSIUS
  WCI - WIND CHILL INDEX
   HX - HEAT INDEX
  VSB - VISIBILITY





USA.gov is the U.S. government's official web portal to all federal, state and local government web resources and services.